Starlink 11145

operational
NORAD ID: 59945 Int'l Des: 2024-107 Owner: SPXS Country: US Constellation: starlink
LEOCIRCULAR

Über Starlink 11145

Beschreibung wird geladen...

Live-Position

3D-Globus wird geladen...

Nächste Überflüge

Höhenverlauf

Altitude vs Time

uPlot chart will show altitude changes over time

Zweizeiliger Elementsatz

1 59945U 24107A 25260.64866816 -.00000481 00000-0 89472-6 0 9996
2 59945 53.1595 24.6090 0001296 60.7957 299.3191 15.69718496 74961
Epoch: 17. Sept. 2025 • Age: 28 hours

Aktueller Status

Höhe 365.5 km
Geschwindigkeit 7.70 km/s
Subsatellitenpunkt 53.29°N, 176.93°E
Startdatum 5. Juni 2024
Alter 1.2 years
Typ internet

Technische Details

Klassifizierung Payload
Masse 960.00 kg
Trockenmasse 910.00 kg
Gesamtmasse 960.00 kg
Länge 0.30 m
Durchmesser 4.10 m
Spannweite 29.00 m
Form Box + pan
Hersteller SPXS
Bus-Typ Starlink V2MD
Phasenstatus In Orbit
Besitzer/Staat SPXS/US

Große Konstellationen

Loading constellations...